C/2017 U5 ( PanSTARRS )

Japanese version
Home page
Updated on December 26, 2019

---------------------------------------------------------------------

* Profile

Discovery Date October 30, 2017
Magnitude 21.3 mag
Discoverer Pan-STARRS 1 telescope (Haleakala)

* Orbital Elements

Epoch 2018 Jan. 2.0 TT = JDT 2458120.5
T 2017 Dec. 19.09608 TT                                 MPCW
q   4.3267656            (2000.0)            P               Q
n   0.01413967     Peri.  262.14962     +0.40282783     -0.91039926
a  16.9372630      Node   163.11468     +0.91414022     +0.39505088
e   0.7445416      Incl.   18.95656     +0.04557849     +0.12291455
P  69.71
From 90 observations 2017 Oct. 30-2018 Feb. 15, mean residual 0".4.

* Magnitudes Graph

        m1 = 11.0 + 5 log d + 10.0 log r

---------------------------------------------------------------------

The orbital elements are published on M.P.E.C. 2019-J142.
The magnitudes graphs are made with Comet for Windows.

---------------------------------------------------------------------

Copyright(C) Seiichi Yoshida (comet@aerith.net). All rights reserved.